CAPE
1155 860 1102 358 1 0 19 64 60 199 270 291 284 372 415 349 114 53 836 846 780 1057 1472 1843 2388 2072 1587 1541 1644 1648 1781 1126 987 708 916 679 923 1465 1438 1491 1476 1539 1606 1757 1905 1792 1508 1365 1811
315 590 898 7 0 0 2 28 74 238 219 272 294 316 303 307 321 787 872 757 949 1239 1429 1640 2482 2283 1891 1455 1193 1251 1146 1378 1358 1174 1560 1706 1232 718 975 776 1143 1833 1734 1408 1205 961 1111 1930 1713
103 200 82 0 0 0 0 127 85 250 361 459 381 383 453 300 391 638 899 917 1048 1175 1367 1634 2288 1977 1750 1805 1653 1330 1108 1243 1012 1078 1186 1471 1621 1741 1179 1073 1067 774 822 825 1225 1304 1591 1481 1513
293 379 66 76 8 6 16 109 83 260 295 233 279 285 404 287 521 524 869 793 1016 1040 1360 2140 2094 1798 1504 1263 1393 1493 1281 1244 1416 1495 1554 1612 1504 1598 1580 1444 1639 1733 1431 1789 1502 1428 1146 1019 1080
246 197 83 30 11 70 87 58 141 153 281 270 238 243 329 655 601 723 740 895 885 1077 1563 1669 2351 1669 1449 1363 1258 1092 1041 758 1489 1249 1266 1405 1582 1597 1575 1413 1545 1444 1402 1353 1082 1155 1088 869 842
577 249 80 86 93 81 53 73 146 212 207 187 178 131 249 635 803 874 995 1078 1027 1185 1286 1562 1775 1683 1399 1075 1130 1047 348 461 1058 1312 1228 1088 973 1177 1315 1136 711 1056 1350 1249 1051 945 871 940 1056
567 399 61 58 72 56 25 48 113 179 166 139 95 116 188 468 727 812 849 730 868 1150 1332 1356 1136 1133 1170 636 677 533 128 47 692 805 1033 1304 1507 836 557 608 648 718 1108 1156 1012 1037 1128 1165 1322
386 308 66 99 22 8 35 14 52 115 174 97 54 75 143 331 487 631 531 463 733 1068 924 956 948 1070 714 445 614 190 109 137 508 1351 1036 777 953 1434 1398 1175 699 582 632 810 1018 1096 1114 1188 1403
562 83 123 204 42 17 0 109 112 138 98 196 95 53 117 288 474 456 380 309 635 700 548 599 713 575 426 231 479 513 495 496 432 742 1055 902 597 651 852 1149 1139 953 904 871 859 965 1298 1243 959
346 164 295 475 22 27 27 136 367 153 117 123 90 46 105 171 372 447 409 420 561 419 302 461 182 159 139 188 194 115 196 98 44 197 791 685 405 405 801 1149 1561 1346 1628 2127 1710 1136 1123 1561 760
409 460 426 168 26 19 103 119 211 203 230 161 72 70 71 113 196 311 306 377 392 205 77 167 108 27 2 18 78 79 68 10 5 11 60 182 490 154 190 241 1191 749 423 605 467 173 84 93 189
209 692 584 472 210 64 134 147 340 284 197 171 80 59 49 12 80 151 250 198 231 194 152 67 49 0 0 0 36 40 39 18 36 48 45 124 210 329 224 322 302 36 0 49 22 82 87 119 85
326 357 284 53 6 151 190 183 278 43 149 213 124 80 68 13 5 5 46 94 147 220 204 10 0 0 0 0 4 0 0 63 77 65 156 230 374 246 273 342 250 143 3 5 0 23 109 196 159
402 287 342 211 12 70 26 79 72 55 17 170 159 75 67 26 22 17 21 68 185 226 219 26 36 0 0 0 0 1 0 47 21 0 34 165 288 362 298 169 268 241 38 44 70 25 57 129 242
297 157 198 295 151 213 86 30 126 106 56 22 211 144 77 5 0 0 0 9 25 60 108 118 9 0 0 0 0 8 36 62 68 75 126 261 415 672 646 316 287 259 209 226 244 132 168 152 412
12 14 188 270 274 211 92 10 52 57 93 172 27 24 30 26 2 8 5 18 0 0 0 113 52 33 1 2 94 135 75 102 168 399 503 339 536 913 841 839 638 501 374 452 458 170 219 717 352
7 19 161 317 321 192 89 35 51 50 88 85 109 54 45 63 73 22 22 41 36 25 9 84 70 87 102 52 156 118 25 133 267 278 506 700 888 548 559 779 837 460 543 602 345 308 484 623 317
63 46 127 370 329 294 69 10 1 8 41 67 104 32 36 103 105 54 79 37 75 60 42 117 101 40 0 7 150 553 351 717 804 253 549 681 615 744 276 530 686 939 773 493 443 630 595 386 409
12 0 153 528 498 319 155 77 23 20 3 30 81 35 13 54 64 76 112 47 33 99 80 137 132 0 23 401 410 251 305 486 54 570 878 723 689 828 640 499 1100 1084 543 925 1194 1547 756 306 72
7 37 16 185 484 267 327 347 441 78 14 30 122 80 18 8 61 51 9 62 50 111 24 25 54 4 173 218 81 251 733 685 547 879 1024 762 885 771 523 1052 1186 1352 960 966 914 1106 194 176 293
26 25 26 331 383 307 111 73 4 96 117 57 147 196 6 30 22 42 0 40 7 39 116 24 33 7 62 25 1 121 875 670 394 637 920 1124 1058 960 1181 1197 1003 1066 815 537 511 1097 310 81 236
63 103 84 725 457 246 52 47 8 1 72 147 223 191 97 64 1 40 25 0 0 0 111 36 6 5 35 10 4 212 464 298 309 193 753 916 1012 785 1224 1323 1092 895 1016 447 379 967 716 479 313
93 136 166 535 551 329 79 85 27 4 3 32 139 197 199 140 55 37 16 0 0 0 18 37 15 1 4 9 76 468 726 455 134 66 53 396 642 907 1558 1131 832 1011 684 742 176 225 582 458 584
66 6 149 447 609 105 90 38 5 19 2 4 144 242 394 327 122 62 56 25 0 1 24 51 1 0 0 0 23 472 912 820 295 79 853 601 917 1081 1466 1227 1183 957 714 592 467 823 1147 1004 827
0 0 4 4 1 39 78 23 14 25 51 0 117 284 438 399 156 166 132 59 11 0 2 56 59 14 0 6 57 231 814 919 984 816 798 791 979 1019 888 1374 1156 922 593 0 545 905 1265 1366 1087
0 0 0 11 13 68 86 25 4 34 112 165 17 11 319 466 337 290 230 109 30 58 18 13 76 180 300 153 363 347 655 766 989 768 594 559 622 616 569 1063 1297 1502 1039 476 319 1290 1195 1165 1143
0 0 0 3 0 38 30 25 179 84 429 417 136 27 94 342 535 446 323 239 109 90 87 58 13 53 151 285 177 731 770 902 985 1019 773 882 784 673 412 1104 1354 1350 1389 1008 1124 1265 1246 1163 1108
0 0 0 0 0 34 96 38 62 75 127 444 509 422 399 549 578 447 344 362 173 103 125 84 79 59 61 102 101 502 863 852 979 973 1012 1101 871 675 374 795 867 831 1202 1630 1421 1435 1198 1258 1099
0 0 0 0 0 2 82 6 31 76 95 115 255 662 741 795 695 630 557 463 210 198 256 268 179 113 98 157 140 51 780 913 1010 1191 1542 1167 861 381 245 448 303 524 1042 1403 1342 1173 1083 1060 887
0 3 78 0 1 29 17 12 34 160 8 66 195 385 928 980 793 744 677 615 533 501 459 373 278 201 296 327 456 313 409 1159 1204 1210 1296 1208 836 639 672 405 0 615 1054 1144 1186 1280 1390 1156 780
CIN
-114 -130 -91 -60 -2 -0 -0 -44 -10 -54 -61 -55 -70 -81 -118 -163 -82 -104 -63 -69 -110 -41 -1 -0 -0 -0 -0 -0 -0 -0 -0 -0 -3 -17 -9 -19 -2 -0 -0 -0 -0 -0 -0 -0 -0 -0 -0 -0 -0
-164 -110 -132 -122 -0 -0 -0 -12 -59 -61 -126 -57 -117 -118 -152 -160 -201 -115 -67 -77 -85 -55 -17 -3 -0 -0 -0 -0 -0 -0 -0 -0 -0 -0 -0 -0 -0 -3 -0 -4 -1 -0 -0 -0 -0 -0 -0 -0 -0
-65 -68 -141 -0 -0 -2 -0 -45 -15 -59 -64 -47 -104 -100 -86 -126 -174 -115 -77 -97 -62 -47 -32 -6 -0 -0 -0 -0 -0 -0 -0 -0 -0 -0 -0 -0 -0 -0 -0 -0 -3 -1 -0 -1 -0 -0 -0 -2 -6
-54 -166 -165 -26 -1 -0 -18 -71 -29 -4 -37 -108 -99 -99 -59 -76 -93 -129 -82 -105 -67 -67 -34 -0 -0 -0 -0 -0 -0 -0 -0 -0 -0 -0 -0 -0 -0 -0 -0 -0 -0 -0 -0 -0 -0 -2 -3 -9 -10
-240 -156 -78 -7 -0 -0 -26 -8 -19 -20 -80 -85 -109 -77 -56 -27 -86 -91 -83 -66 -98 -63 -18 -8 -0 -0 -0 -0 -0 -0 -0 -0 -0 -0 -0 -0 -0 -0 -6 -0 -0 -0 -0 -0 -2 -0 -1 -9 -15
-103 -117 -24 -13 -5 -8 -42 -40 -107 -59 -78 -130 -122 -86 -35 -23 -54 -42 -78 -60 -55 -42 -17 -0 -0 -0 -0 -1 -0 -0 -3 -7 -0 -0 -0 -0 -5 -0 -0 -0 -3 -0 -0 -0 -0 -0 -6 -11 -16
-40 -63 -19 -25 -30 -31 -17 -39 -41 -83 -100 -95 -132 -81 -26 -28 -39 -41 -69 -73 -70 -41 -21 -9 -21 -18 -14 -27 -3 -0 -20 -46 -5 -2 -3 -0 -7 -16 -4 -26 -21 -11 -0 -0 -0 -11 -11 -17 -16
-86 -100 -69 -11 -2 -18 -72 -151 -114 -16 -47 -112 -132 -116 -48 -53 -32 -45 -84 -88 -53 -18 -22 -31 -42 -16 -35 -26 -0 -5 -32 -45 -14 -4 -0 -2 -4 -0 -0 -4 -19 -27 -28 -12 -10 -14 -16 -15 -10
-74 -11 -79 -32 -2 -151 -7 -127 -122 -44 -57 -56 -75 -159 -93 -48 -53 -58 -27 -32 -24 -21 -49 -63 -45 -43 -35 -26 -0 -3 -9 -21 -16 -12 -3 -9 -38 -19 -15 -5 -7 -3 -11 -25 -25 -15 -6 -8 -14
-70 -37 -55 -52 -22 -0 -95 -109 -21 -21 -81 -90 -109 -101 -69 -51 -45 -46 -49 -56 -48 -65 -97 -82 -105 -86 -66 -10 -20 -103 -89 -90 -101 -71 -17 -25 -53 -39 -25 -24 -1 -4 -14 -2 -9 -28 -25 -20 -49
-132 -81 -61 -126 -18 -30 -74 -105 -50 -16 -86 -139 -142 -131 -87 -49 -42 -45 -64 -69 -97 -111 -191 -124 -129 -131 -20 -71 -99 -91 -87 -157 -187 -37 -18 -95 -67 -30 -57 -104 -32 -46 -74 -145 -111 -225 -243 -192 -53
-78 -35 -44 -53 -67 -71 -43 -91 -67 -28 -51 -85 -139 -116 -110 -69 -49 -57 -68 -40 -48 -73 -94 -102 -98 -0 -0 -7 -95 -108 -159 -187 -16 -17 -24 -72 -67 -55 -89 -105 -119 -95 -0 -136 -261 -248 -211 -141 -177
-63 -80 -85 -62 -96 -51 -61 -73 -64 -27 -44 -90 -93 -92 -132 -82 -29 -24 -66 -50 -39 -41 -48 -99 -0 -0 -0 -0 -79 -0 -0 -131 -79 -106 -25 -25 -55 -72 -40 -142 -129 -114 -9 -31 -3 -69 -104 -86 -100
-62 -44 -66 -72 -15 -43 -76 -89 -102 -12 -30 -59 -68 -73 -76 -86 -77 -74 -54 -72 -39 -44 -69 -74 -48 -0 -0 -0 -0 -16 -0 -29 -9 -0 -49 -40 -15 -49 -89 -149 -273 -163 -85 -44 -58 -356 -41 -46 -41
-28 -32 -17 -43 -53 -72 -93 -40 -26 -64 -49 -11 -46 -33 -64 -16 -0 -0 -0 -83 -90 -61 -47 -34 -80 -0 -0 -0 -0 -168 -152 -134 -117 -74 -14 -66 -17 -50 -22 -45 -25 -22 -31 -46 -28 -200 -27 -45 -28
-62 -125 -50 -61 -51 -46 -82 -8 -68 -13 -88 -38 -2 -45 -59 -56 -9 -42 -65 -108 -0 -0 -0 -40 -38 -70 -29 -24 -118 -89 -68 -23 -43 -34 -48 -73 -32 -31 -27 -29 -30 -20 -40 -57 -57 -34 -32 -34 -52
-27 -72 -99 -54 -28 -38 -31 -80 -94 -47 -15 -15 -51 -58 -103 -117 -125 -79 -110 -107 -81 -94 -68 -39 -44 -56 -50 -64 -90 -89 -14 -25 -20 -21 -21 -33 -18 -29 -46 -20 -40 -39 -29 -29 -126 -46 -30 -105 -76
-160 -110 -89 -84 -56 -30 -58 -107 -4 -136 -80 -3 -56 -15 -106 -149 -144 -115 -122 -104 -58 -60 -58 -54 -55 -56 -0 -92 -67 -29 -48 -43 -40 -56 -47 -39 -36 -45 -61 -11 -60 -29 -57 -17 -19 -23 -63 -47 -86
-39 -0 -74 -66 -61 -44 -84 -146 -121 -239 -80 -9 -95 -4 -121 -142 -140 -153 -118 -111 -108 -41 -66 -32 -34 -0 -109 -28 -12 -19 -36 -59 -39 -88 -57 -48 -49 -31 -21 -72 -45 -33 -57 -25 -15 -19 -29 -33 -25
-106 -64 -101 -53 -69 -54 -130 -156 -152 -226 -254 -77 -117 -27 -8 -19 -145 -146 -169 -123 -112 -60 -71 -59 -62 -39 -61 -44 -38 -47 -28 -52 -50 -41 -54 -44 -60 -22 -21 -46 -39 -27 -38 -24 -29 -18 -41 -55 -43
-181 -146 -110 -71 -91 -56 -96 -124 -16 -182 -234 -128 -139 -123 -72 -33 -133 -184 -0 -162 -79 -141 -77 -70 -53 -65 -87 -43 -25 -85 -21 -31 -22 -33 -61 -31 -25 -15 -15 -24 -36 -27 -16 -37 -33 -33 -82 -50 -99
-170 -135 -110 -76 -100 -56 -53 -16 -38 -98 -178 -147 -137 -54 -48 -71 -12 -35 -173 -0 -0 -0 -111 -99 -88 -87 -65 -89 -135 -95 -51 -40 -20 -28 -24 -23 -28 -11 -53 -14 -23 -35 -36 -31 -49 -28 -40 -42 -63
-107 -111 -93 -75 -104 -42 -48 -67 -62 -85 -182 -316 -115 -83 -88 -75 -75 -60 -54 -0 -0 -0 -205 -167 -129 -110 -181 -173 -173 -76 -38 -36 -59 -137 -220 -22 -22 -14 -22 -26 -23 -33 -39 -36 -41 -51 -48 -124 -47
-61 -38 -66 -54 -29 -30 -78 -58 -198 -220 -20 -249 -118 -150 -72 -48 -74 -70 -44 -40 -0 -60 -147 -160 -138 -0 -0 -0 -205 -87 -26 -22 -48 -166 -56 -49 -28 -18 -25 -8 -15 -27 -37 -37 -36 -46 -50 -53 -29
-0 -0 -2 -2 -1 -30 -157 -60 -33 -293 -108 -0 -115 -112 -95 -27 -52 -51 -40 -54 -58 -0 -84 -214 -159 -153 -0 -147 -171 -65 -34 -25 -19 -24 -41 -41 -36 -21 -18 -16 -35 -38 -43 -0 -32 -43 -33 -26 -32
-0 -0 -0 -21 -2 -40 -120 -81 -82 -110 -54 -51 -133 -229 -72 -33 -30 -51 -62 -48 -61 -37 -41 -264 -193 -206 -181 -224 -165 -142 -81 -56 -28 -29 -34 -27 -34 -36 -25 -59 -25 -31 -25 -37 -31 -19 -33 -23 -20
-0 -0 -0 -5 -1 -53 -62 -74 -98 -93 -40 -32 -92 -96 -126 -20 -32 -43 -52 -40 -51 -38 -27 -22 -29 -31 -220 -164 -231 -121 -111 -84 -57 -43 -65 -38 -22 -9 -72 -59 -41 -41 -28 -23 -18 -12 -16 -26 -27
-0 -0 -0 -0 -0 -43 -68 -142 -85 -162 -65 -14 -25 -32 -29 -29 -33 -58 -61 -15 -50 -43 -41 -47 -37 -33 -40 -242 -190 -149 -87 -99 -79 -68 -50 -32 -33 -9 -160 -46 -29 -27 -18 -14 -18 -2 -12 -20 -17
-0 -0 -0 -0 -0 -3 -43 -35 -108 -73 -157 -90 -32 -9 -12 -12 -26 -35 -35 -19 -31 -26 -25 -46 -46 -255 -304 -221 -210 -167 -136 -125 -86 -75 -35 -27 -27 -41 -150 -49 -34 -33 -6 -12 -11 -12 -23 -26 -29
-0 -11 -36 -0 -1 -49 -24 -42 -119 -78 -65 -125 -71 -18 -27 -15 -15 -24 -31 -26 -17 -22 -19 -44 -55 -27 -14 -215 -175 -193 -184 -104 -94 -77 -71 -39 -40 -31 -49 -41 -0 -67 -19 -24 -17 -18 -40 -21 -25
Wind_Speed
8 5 4 8 nan nan nan nan nan 8 8 9 19 15 7 9 1 nan 6 14 16 12 9 11 10 8 9 8 10 11 11 11 12 11 12 13 14 13 13 12 11 11 10 12 14 15 18 19 19
4 5 8 nan nan nan nan nan nan 5 15 20 21 17 13 3 6 17 8 13 14 11 5 10 5 7 11 8 9 9 11 11 12 10 11 15 16 14 13 13 12 12 12 13 16 16 18 20 21
7 3 nan nan nan nan nan 14 nan 16 19 6 11 12 7 1 9 13 13 15 9 9 8 2 6 5 9 9 7 8 11 13 11 10 13 15 16 13 13 12 14 13 13 14 16 18 19 19 20
3 5 nan nan nan nan nan 13 nan 13 9 10 19 11 5 2 2 11 15 13 9 8 3 7 7 4 4 5 6 8 12 13 13 11 13 16 17 12 11 11 10 10 10 12 14 17 17 15 15
6 7 nan nan nan nan nan nan 9 10 14 16 11 10 4 5 12 16 15 9 10 7 4 6 8 8 8 7 8 10 13 12 12 16 16 17 16 10 10 9 8 9 11 11 13 10 17 18 12
8 11 nan nan nan nan nan nan 6 10 22 23 18 11 4 4 10 10 9 6 4 6 4 6 11 12 10 11 9 10 14 15 15 17 18 21 13 10 8 8 6 7 8 13 13 12 15 11 8
12 7 nan nan nan nan nan nan 4 17 20 13 nan 9 2 2 6 4 5 3 6 4 7 9 7 7 12 13 9 11 14 nan 10 14 16 12 5 8 8 6 5 7 10 10 10 10 11 11 14
10 9 nan nan nan nan nan nan nan 11 0 nan nan nan 5 7 7 4 2 1 2 2 4 7 10 11 10 10 7 7 7 3 8 6 14 7 2 6 7 6 3 6 5 5 5 9 14 13 13
10 nan 9 14 nan nan nan 6 6 15 nan 3 nan nan 12 8 7 5 3 2 1 5 2 6 8 12 13 12 3 6 8 10 6 9 11 4 4 6 5 2 5 3 3 2 8 12 19 19 15
12 6 14 13 nan nan nan 3 4 9 14 9 nan nan 13 10 5 3 4 3 2 3 3 4 7 9 10 8 7 5 3 nan nan 15 14 11 8 6 7 5 7 2 4 7 6 3 11 9 11
5 11 14 11 nan nan 4 9 9 11 6 16 nan nan nan 10 5 5 6 9 10 7 nan 6 4 nan nan nan nan nan nan nan nan nan nan 14 10 9 6 5 4 2 9 3 1 3 nan nan 11
4 11 12 12 12 nan 10 14 8 14 8 13 nan nan nan nan nan 7 9 9 7 5 5 nan nan nan nan nan nan nan nan nan nan nan nan 9 8 8 8 5 4 nan nan nan nan nan nan 11 nan
7 5 9 nan nan 7 9 8 8 nan 16 12 12 nan nan nan nan nan nan nan 7 5 4 nan nan nan nan nan nan nan nan nan nan nan 11 9 8 6 6 4 4 5 nan nan nan nan 15 17 16
5 4 9 9 nan nan nan nan nan nan nan 13 12 nan nan nan nan nan nan nan 8 4 4 nan nan nan nan nan nan nan nan nan nan nan nan 5 4 3 5 3 1 3 nan nan nan nan nan 16 17
18 11 7 7 6 5 nan nan 5 2 nan nan 14 11 nan nan nan nan nan nan nan nan 2 7 nan nan nan nan nan nan nan nan nan nan 10 6 2 4 1 5 7 4 2 9 11 13 3 8 18
nan nan 8 12 8 6 nan nan nan nan nan 11 nan nan nan nan nan nan nan nan nan nan nan 8 nan nan nan nan nan 9 nan 4 9 12 7 3 2 4 3 3 8 0 4 7 6 7 14 17 15
nan nan 4 8 9 3 nan nan nan nan nan nan 12 nan nan nan nan nan nan nan nan nan nan nan nan nan 8 nan 11 10 nan 6 10 8 6 4 0 4 5 6 4 6 8 8 12 13 15 17 20
nan nan 8 2 13 9 nan nan nan nan nan nan 12 nan nan 9 9 nan nan nan nan nan nan 7 9 nan nan nan 13 14 14 9 8 7 3 6 0 5 7 2 5 4 6 4 8 12 15 10 12
nan nan 3 8 8 8 14 nan nan nan nan nan nan nan nan nan nan nan 8 nan nan nan nan 5 10 nan nan 15 18 17 17 13 nan 8 8 8 4 5 5 3 1 2 3 8 6 6 4 6 nan
nan nan nan 12 7 8 22 26 8 nan nan nan 9 nan nan nan nan nan nan nan nan 4 nan nan nan nan 9 12 nan 17 20 16 12 13 9 5 2 2 6 5 3 3 0 5 4 1 3 2 4
nan nan nan 22 9 11 11 nan nan nan 9 nan 12 12 nan nan nan nan nan nan nan nan 3 nan nan nan nan nan nan 21 19 15 13 11 8 5 3 5 9 6 4 7 4 6 2 5 6 nan 4
nan 21 nan 22 11 10 nan nan nan nan nan 17 17 15 nan nan nan nan nan nan nan nan 0 nan nan nan nan nan nan 14 13 12 8 8 6 3 6 2 6 8 10 7 5 3 1 0 4 5 3
nan 5 12 8 14 6 nan nan nan nan nan nan 10 17 17 14 nan nan nan nan nan nan nan nan nan nan nan nan nan 9 12 10 14 nan nan 7 4 3 6 7 10 9 5 2 1 10 4 3 5
nan nan 9 11 9 5 nan nan nan nan nan nan 4 16 18 12 8 nan nan nan nan nan nan nan nan nan nan nan nan 3 6 5 7 nan 3 4 9 6 4 4 5 6 4 4 4 5 3 7 4
nan nan nan nan nan nan nan nan nan nan nan nan 10 18 12 10 7 13 15 nan nan nan nan nan nan nan nan nan nan 3 4 7 5 6 7 8 5 4 5 5 4 5 2 nan 1 4 3 4 2
nan nan nan nan nan nan nan nan nan nan 10 17 nan nan 15 17 12 13 15 15 nan nan nan nan nan 3 3 1 3 7 8 9 9 8 8 6 7 9 7 5 5 6 3 2 3 2 2 1 0
nan nan nan nan nan nan nan nan 7 nan 2 8 8 nan nan 21 17 18 11 6 10 nan nan nan nan nan 1 3 5 5 9 10 9 6 11 9 8 8 6 8 8 5 3 1 1 4 4 3 1
nan nan nan nan nan nan nan nan nan nan 8 7 9 10 14 20 17 19 15 13 5 8 11 nan nan nan nan 4 8 9 9 9 12 12 7 10 10 7 11 10 6 5 2 1 2 5 7 7 1
nan nan nan nan nan nan nan nan nan nan nan 14 16 17 17 18 28 19 14 11 10 9 10 14 17 16 nan 8 9 nan 10 11 11 12 10 11 11 9 8 7 6 7 4 4 5 5 8 6 6
nan nan nan nan nan nan nan nan nan 15 nan nan 18 30 22 29 30 22 24 17 13 8 6 9 12 14 11 11 12 12 14 12 12 13 15 14 11 11 10 11 nan 10 7 7 6 7 9 8 7
Wind_Direction
319 296 285 257 nan nan nan nan nan 334 305 301 283 305 290 230 325 nan 330 284 280 265 272 250 256 280 288 291 297 300 292 297 296 299 304 303 301 300 315 308 315 323 327 309 314 323 315 319 324
272 295 261 nan nan nan nan nan nan 290 309 291 264 263 248 237 229 287 267 297 288 267 242 210 246 246 287 286 297 309 295 286 278 294 294 293 298 304 303 312 326 326 312 324 328 318 323 323 323
246 277 nan nan nan nan nan 78 nan 326 343 314 281 238 268 117 267 308 312 295 281 240 214 234 303 278 260 265 305 317 314 277 278 290 286 289 297 296 309 318 335 325 326 332 318 320 327 323 317
304 298 nan nan nan nan nan 119 nan 24 310 269 301 266 249 356 268 326 313 301 292 248 233 271 330 297 239 271 304 300 324 292 262 265 278 285 284 276 301 320 318 304 325 305 318 330 332 320 325
277 316 nan nan nan nan nan nan 101 76 319 323 293 281 262 204 288 300 307 301 287 234 211 234 291 315 287 284 304 304 298 298 268 261 267 268 278 299 303 310 305 316 317 321 333 332 330 316 332
230 287 nan nan nan nan nan nan 86 330 319 308 293 285 210 302 286 311 301 291 257 232 203 194 265 294 293 290 294 302 306 295 277 260 253 262 260 279 307 300 308 323 334 343 340 335 332 342 357
285 327 nan nan nan nan nan nan 24 7 350 307 nan 279 277 319 307 301 312 319 311 195 159 184 223 268 291 284 295 309 317 nan 262 261 237 251 235 295 304 312 330 352 6 11 4 29 27 34 58
290 273 nan nan nan nan nan nan nan 78 217 nan nan nan 5 19 317 296 224 338 232 131 178 201 210 231 238 239 288 314 332 17 352 209 212 219 242 280 306 320 335 49 38 17 67 53 63 52 55
237 nan 324 339 nan nan nan 242 145 290 nan 124 nan nan 325 335 302 269 221 151 175 243 226 182 206 215 226 229 236 278 320 313 213 179 191 178 189 204 189 218 64 73 79 40 48 55 55 60 48
304 326 20 3 nan nan nan 353 86 324 285 249 nan nan 322 340 335 317 342 1 48 14 71 167 186 204 220 217 221 232 267 nan nan 177 159 155 171 173 183 148 75 52 237 151 154 68 72 77 30
353 335 14 348 nan nan 72 150 149 335 303 343 nan nan nan 350 354 14 16 4 15 22 nan 132 160 nan nan nan nan nan nan nan nan nan nan 154 161 175 151 175 215 216 164 325 86 164 nan nan 32
313 1 2 339 341 nan 354 147 105 53 32 353 nan nan nan nan nan 10 23 16 354 47 79 nan nan nan nan nan nan nan nan nan nan nan nan 150 153 171 183 212 327 nan nan nan nan nan nan 72 nan
238 312 325 nan nan 39 309 147 75 nan 348 6 356 nan nan nan nan nan nan nan 344 11 116 nan nan nan nan nan nan nan nan nan nan nan 143 165 162 173 178 159 47 40 nan nan nan nan 79 75 80
137 284 344 8 nan nan nan nan nan nan nan 346 18 nan nan nan nan nan nan nan 8 15 84 nan nan nan nan nan nan nan nan nan nan nan nan 163 224 186 98 134 73 83 nan nan nan nan nan 77 82
229 208 99 6 17 26 nan nan 143 249 nan nan 23 28 nan nan nan nan nan nan nan nan 188 164 nan nan nan nan nan nan nan nan nan nan 150 163 174 258 171 117 106 96 303 4 17 32 54 101 105
nan nan 97 21 353 87 nan nan nan nan nan 150 nan nan nan nan nan nan nan nan nan nan nan 159 nan nan nan nan nan 166 nan 168 178 180 162 195 226 243 245 100 91 158 8 23 47 12 39 14 58
nan nan 334 61 13 103 nan nan nan nan nan nan 152 nan nan nan nan nan nan nan nan nan nan nan nan nan 199 nan 163 163 nan 179 172 169 184 257 199 261 211 165 132 17 46 42 41 25 46 20 14
nan nan 105 1 29 17 nan nan nan nan nan nan 161 nan nan 341 12 nan nan nan nan nan nan 235 186 nan nan nan 180 177 174 174 186 180 229 287 199 293 277 262 111 11 23 29 45 36 26 19 26
nan nan 124 53 69 41 68 nan nan nan nan nan nan nan nan nan nan nan 354 nan nan nan nan 217 207 nan nan 217 199 188 188 183 nan 191 246 284 350 301 282 284 184 327 356 12 31 27 16 29 nan
nan nan nan 207 196 130 51 54 35 nan nan nan 334 nan nan nan nan nan nan nan nan 46 nan nan nan nan 200 197 nan 203 191 186 200 200 247 276 53 4 3 9 58 281 75 234 219 142 345 321 51
nan nan nan 352 61 58 58 nan nan nan 34 nan 2 305 nan nan nan nan nan nan nan nan 75 nan nan nan nan nan nan 185 190 195 208 199 213 258 309 354 19 21 333 305 290 242 201 42 59 nan 77
nan 53 nan 352 358 67 nan nan nan nan nan 17 1 5 nan nan nan nan nan nan nan nan 268 nan nan nan nan nan nan 186 202 200 203 206 216 227 246 87 3 339 317 350 344 283 49 300 77 42 43
nan 54 1 19 347 283 nan nan nan nan nan nan 342 358 10 23 nan nan nan nan nan nan nan nan nan nan nan nan nan 198 203 202 203 nan nan 200 198 10 324 316 318 328 327 36 21 95 80 67 60
nan nan 190 308 337 295 nan nan nan nan nan nan 70 30 2 3 22 nan nan nan nan nan nan nan nan nan nan nan nan 153 149 187 204 nan 232 243 228 234 264 296 310 295 340 48 76 113 111 71 118
nan nan nan nan nan nan nan nan nan nan nan nan 63 358 352 356 7 5 3 nan nan nan nan nan nan nan nan nan nan 174 218 234 249 256 253 244 257 281 280 294 283 271 354 nan 201 128 98 95 164
nan nan nan nan nan nan nan nan nan nan 111 64 nan nan 10 22 16 30 6 5 nan nan nan nan nan 11 279 91 109 216 229 239 243 263 272 269 262 273 270 282 294 324 19 82 316 184 239 95 217
nan nan nan nan nan nan nan nan 132 nan 196 83 73 nan nan 9 18 25 37 17 3 nan nan nan nan nan 280 287 225 211 230 236 246 266 276 272 259 269 285 271 288 312 348 42 203 230 241 274 307
nan nan nan nan nan nan nan nan nan nan 36 44 45 37 45 23 8 359 16 24 4 326 314 nan nan nan nan 302 253 234 242 248 247 250 263 260 253 255 269 290 258 307 298 302 277 265 242 265 238
nan nan nan nan nan nan nan nan nan nan nan 355 16 0 12 6 355 348 351 13 356 322 335 313 300 327 nan 285 270 nan 247 256 249 250 240 245 253 255 257 267 265 271 290 257 276 262 272 263 279
nan nan nan nan nan nan nan nan nan 341 nan nan 345 333 314 351 356 3 1 344 309 308 317 312 288 289 282 282 273 265 257 250 258 260 255 247 244 242 246 249 nan 265 282 279 284 284 270 272 263